STARLINK-36107 (66979 NORAD) Tracking and Keplerian Element Data

This shows tracking and keplerian element data for the satellite.

Feedback or suggestion? Click here.




ElementValue
Catalog66979
NameSTARLINK-36107
Epoch Orbit303
Epoch Day354.25003472
Epoch Year2025
RAAN121.0697
Inclination43.0019
Eccentricity0.0001582
Argument of Perigee276.0211
Mean Anonmoly126.7609
Mean Motion15.80964546
Decay Rate-0.01528707
L11 66979U 25288W 25354.25003472 -.01528707 00000+0 -86668-2 0 9991
L22 66979 43.0019 121.0697 0001582 276.0211 126.7609 15.80964546 3032



Live tracking and technical data element details for STARLINK-36107 (NORAD 66979). STARLINK-36107 can be tracked NOW for your location showing map with azimuth and elevation plus other details from your city location.







IsCatalogInMostPopularTable: catalog: 66979, numindb: 12
Update: records affected: 1



GetName: 66979 STARLINK-36107

Hit Count: updated at: Fri, 16 Jan 2026 09:27:57 GMT